| time (UTC) | temp F | wind direction | speed MPH | gust MPH | rain 1hr in | rain 24hr in | rain mn in | humidity % | barometer mb |
| 20260904090012 | 83 | 98 | 1.0 | 5.0 | 0.00 | 0.00 | 0.00 | 42 | 1017.4 |
| 20260904085514 | 83 | 70 | 4.0 | 8.0 | 0.00 | 0.00 | 0.00 | 41 | 1017.4 |
| 20260904085028 | 84 | 76 | 2.0 | 3.0 | 0.00 | 0.00 | 0.00 | 41 | 1017.5 |
| 20260904084028 | 82 | 92 | 4.0 | 9.0 | 0.00 | 0.00 | 0.00 | 43 | 1017.5 |
| 20260904082513 | 81 | 341 | 1.0 | 5.0 | 0.00 | 0.00 | 0.00 | 45 | 1017.2 |
| 20260904082031 | 81 | 99 | 3.0 | 8.0 | 0.00 | 0.00 | 0.00 | 44 | 1017.4 |
| 20260904081512 | 81 | 129 | 3.0 | 6.0 | 0.00 | 0.00 | 0.00 | 45 | 1017.3 |
| 20260904081028 | 81 | 62 | 3.0 | 6.0 | 0.00 | 0.00 | 0.00 | 45 | 1017.2 |
| 20260904073028 | 80 | 60 | 3.0 | 8.0 | 0.00 | 0.00 | 0.00 | 46 | 1017.1 |
| 20260904071512 | 79 | 125 | 1.0 | 8.0 | 0.00 | 0.00 | 0.00 | 47 | 1017.0 |
| 20260904071029 | 79 | 120 | 2.0 | 8.0 | 0.00 | 0.00 | 0.00 | 47 | 1017.0 |
| 20260904070012 | 79 | 89 | 2.0 | 5.0 | 0.00 | 0.00 | 0.00 | 48 | 1016.9 |
| 20260904065512 | 79 | 120 | 2.0 | 5.0 | 0.00 | 0.00 | 0.00 | 48 | 1016.9 |
| 20260904065029 | 79 | 118 | 2.0 | 3.0 | 0.00 | 0.00 | 0.00 | 49 | 1016.9 |
| 20260904063514 | 78 | 75 | 2.0 | 5.0 | 0.00 | 0.00 | 0.00 | 46 | 1016.8 |
| 20260904063028 | 78 | 41 | 3.0 | 7.0 | 0.00 | 0.00 | 0.00 | 46 | 1016.8 |
| 20260904062512 | 78 | 66 | 3.0 | 7.0 | 0.00 | 0.00 | 0.00 | 46 | 1016.8 |
| 20260904062029 | 78 | 87 | 4.0 | 7.0 | 0.00 | 0.00 | 0.00 | 46 | 1016.7 |
| 20260904061512 | 77 | 71 | 4.0 | 7.0 | 0.00 | 0.00 | 0.00 | 46 | 1016.7 |
| 20260904060012 | 76 | 100 | 3.0 | 7.0 | 0.00 | 0.00 | 0.00 | 52 | 1016.5 |
| 20260904055028 | 75 | 140 | 2.0 | 7.0 | 0.00 | 0.00 | 0.00 | 57 | 1016.4 |
| 20260904052512 | 75 | 90 | 2.0 | 3.0 | 0.00 | 0.00 | 0.00 | 47 | 1016.3 |
| 20260904052029 | 74 | 101 | 2.0 | 6.0 | 0.00 | 0.00 | 0.00 | 47 | 1016.2 |
| 20260904045513 | 73 | 65 | 2.0 | 3.0 | 0.00 | 0.00 | 0.00 | 52 | 1015.9 |
| 20260904045027 | 73 | 77 | 1.0 | 3.0 | 0.00 | 0.00 | 0.00 | 58 | 1015.8 |
| 20260904044512 | 74 | 141 | 1.0 | 2.0 | 0.00 | 0.00 | 0.00 | 60 | 1015.7 |
| 20260904044030 | 74 | 141 | 1.0 | 3.0 | 0.00 | 0.00 | 0.00 | 59 | 1015.7 |
| 20260904043512 | 74 | 92 | 2.0 | 3.0 | 0.00 | 0.00 | 0.00 | 55 | 1015.5 |
| 20260904041512 | 74 | 131 | 2.0 | 6.0 | 0.00 | 0.00 | 0.00 | 56 | 1015.5 |
| 20260904040011 | 74 | 93 | 2.0 | 6.0 | 0.00 | 0.00 | 0.00 | 56 | 1015.5 |
| 20260904034020 | 72 | 102 | 2.0 | 3.0 | 0.00 | 0.00 | 0.00 | 55 | 1015.5 |
| 20260904033511 | 72 | 79 | 1.0 | 3.0 | 0.00 | 0.00 | 0.00 | 60 | 1015.4 |
| 20260904032511 | 72 | 129 | 1.0 | 3.0 | 0.00 | 0.00 | 0.00 | 61 | 1015.3 |
| 20260904032019 | 72 | 112 | 1.0 | 2.0 | 0.00 | 0.00 | 0.00 | 63 | 1015.3 |
| 20260904031019 | 72 | 354 | 0.0 | 1.0 | 0.00 | 0.00 | 0.00 | 70 | 1015.3 |
| 20260904030011 | 72 | 354 | 0.0 | 1.0 | 0.00 | 0.00 | 0.00 | 70 | 1015.3 |
| 20260904024511 | 72 | 141 | 2.0 | 5.0 | 0.00 | 0.00 | 0.00 | 69 | 1015.4 |
| 20260904023512 | 72 | 77 | 1.0 | 3.0 | 0.00 | 0.00 | 0.00 | 67 | 1015.4 |
| 20260904022512 | 72 | 70 | 1.0 | 3.0 | 0.00 | 0.00 | 0.00 | 74 | 1015.4 |
| 20260904021511 | 72 | 35 | 1.0 | 2.0 | 0.00 | 0.00 | 0.00 | 77 | 1015.3 |
| 20260904021019 | 72 | 77 | 1.0 | 3.0 | 0.00 | 0.00 | 0.00 | 77 | 1015.4 |
| 20260904020512 | 72 | 160 | 1.0 | 3.0 | 0.00 | 0.00 | 0.00 | 78 | 1015.4 |
| 20260904015511 | 72 | 110 | 1.0 | 3.0 | 0.00 | 0.00 | 0.00 | 78 | 1015.4 |
| 20260904014511 | 72 | 124 | 2.0 | 5.0 | 0.00 | 0.00 | 0.00 | 79 | 1015.4 |
| 20260904014020 | 72 | 166 | 1.0 | 3.0 | 0.00 | 0.00 | 0.00 | 79 | 1015.5 |
| 20260904013020 | 72 | 51 | 1.0 | 3.0 | 0.00 | 0.00 | 0.00 | 79 | 1015.5 |
| 20260904012511 | 72 | 154 | 1.0 | 3.0 | 0.00 | 0.00 | 0.00 | 79 | 1015.4 |
| 20260904012019 | 72 | 97 | 3.0 | 6.0 | 0.00 | 0.00 | 0.00 | 78 | 1015.5 |
| 20260904011020 | 72 | 82 | 2.0 | 3.0 | 0.00 | 0.00 | 0.00 | 84 | 1015.4 |
| 20260904010512 | 73 | 92 | 2.0 | 3.0 | 0.00 | 0.00 | 0.00 | 85 | 1015.4 |
| 20260904010011 | 73 | 99 | 1.0 | 3.0 | 0.00 | 0.00 | 0.00 | 85 | 1015.5 |
| 20260904005512 | 73 | 89 | 2.0 | 3.0 | 0.00 | 0.00 | 0.00 | 85 | 1015.4 |
| 20260904004511 | 73 | 113 | 1.0 | 3.0 | 0.00 | 0.00 | 0.00 | 85 | 1015.6 |
| 20260904002511 | 73 | 92 | 1.0 | 3.0 | 0.00 | 0.00 | 0.00 | 86 | 1015.8 |
| 20260904002020 | 73 | 131 | 2.0 | 3.0 | 0.00 | 0.00 | 0.00 | 86 | 1015.7 |
| 20260904001019 | 73 | 112 | 2.0 | 6.0 | 0.00 | 0.00 | 0.00 | 86 | 1015.9 |
| 20260904000512 | 73 | 106 | 3.0 | 7.0 | 0.00 | 0.00 | 0.00 | 86 | 1015.9 |
| 20260904000012 | 73 | 112 | 2.0 | 6.0 | 0.00 | 0.00 | 0.00 | 85 | 1016.1 |
| 20260903234512 | 73 | 112 | 3.0 | 6.0 | 0.00 | 0.00 | 0.00 | 85 | 1016.1 |
| 20260903234020 | 74 | 73 | 2.0 | 7.0 | 0.00 | 0.00 | 0.00 | 85 | 1016.0 |
| 20260903233511 | 74 | 122 | 2.0 | 6.0 | 0.00 | 0.00 | 0.00 | 85 | 1016.1 |
| 20260903233019 | 74 | 118 | 3.0 | 7.0 | 0.00 | 0.00 | 0.00 | 84 | 1016.1 |
| 20260903232019 | 74 | 109 | 2.0 | 3.0 | 0.00 | 0.00 | 0.00 | 84 | 1016.0 |
| 20260903231020 | 74 | 79 | 3.0 | 6.0 | 0.00 | 0.00 | 0.00 | 84 | 1015.9 |
| 20260903230011 | 74 | 73 | 2.0 | 3.0 | 0.00 | 0.00 | 0.00 | 83 | 1016.0 |
| 20260903225512 | 74 | 80 | 3.0 | 6.0 | 0.00 | 0.00 | 0.00 | 83 | 1016.0 |
| 20260903224021 | 74 | 48 | 3.0 | 5.0 | 0.00 | 0.00 | 0.00 | 83 | 1015.9 |
| 20260903223019 | 74 | 79 | 3.0 | 6.0 | 0.00 | 0.00 | 0.00 | 82 | 1015.9 |
| 20260903222511 | 74 | 59 | 3.0 | 6.0 | 0.00 | 0.00 | 0.00 | 82 | 1016.0 |
| 20260903221511 | 74 | 120 | 3.0 | 6.0 | 0.00 | 0.00 | 0.00 | 81 | 1015.9 |
| 20260903215511 | 74 | 73 | 3.0 | 6.0 | 0.00 | 0.00 | 0.00 | 80 | 1015.9 |
| 20260903213511 | 75 | 75 | 4.0 | 7.0 | 0.00 | 0.00 | 0.00 | 80 | 1016.0 |
| 20260903212019 | 75 | 66 | 5.0 | 10.0 | 0.00 | 0.00 | 0.00 | 80 | 1016.1 |
| 20260903210011 | 75 | 68 | 7.0 | 12.0 | 0.00 | 0.00 | 0.00 | 77 | 1016.0 |
| 20260903205511 | 75 | 85 | 6.0 | 10.0 | 0.00 | 0.00 | 0.00 | 76 | 1016.0 |
| 20260903205019 | 75 | 79 | 6.0 | 12.0 | 0.00 | 0.00 | 0.00 | 75 | 1016.1 |
| 20260903203511 | 75 | 111 | 7.0 | 12.0 | 0.00 | 0.00 | 0.00 | 73 | 1016.1 |
| 20260903202511 | 76 | 85 | 6.0 | 12.0 | 0.00 | 0.00 | 0.00 | 72 | 1016.1 |
| 20260903194020 | 77 | 120 | 5.0 | 12.0 | 0.00 | 0.00 | 0.00 | 58 | 1016.1 |
| 20260903193019 | 77 | 88 | 7.0 | 12.0 | 0.00 | 0.00 | 0.00 | 56 | 1016.0 |
| 20260903192511 | 77 | 110 | 7.0 | 12.0 | 0.00 | 0.00 | 0.00 | 55 | 1015.9 |
| 20260903192020 | 77 | 104 | 6.0 | 10.0 | 0.00 | 0.00 | 0.00 | 55 | 1015.9 |
| 20260903185511 | 78 | 73 | 7.0 | 12.0 | 0.00 | 0.00 | 0.00 | 55 | 1015.3 |
| 20260903185019 | 78 | 111 | 6.0 | 10.0 | 0.00 | 0.00 | 0.00 | 55 | 1015.3 |
| 20260903184019 | 78 | 49 | 5.0 | 9.0 | 0.00 | 0.00 | 0.00 | 56 | 1015.0 |
| 20260903183512 | 78 | 90 | 5.0 | 8.0 | 0.00 | 0.00 | 0.00 | 55 | 1014.9 |
| 20260903182513 | 78 | 93 | 5.0 | 9.0 | 0.00 | 0.00 | 0.00 | 54 | 1014.9 |
| 20260903181520 | 79 | 64 | 6.0 | 12.0 | 0.00 | 0.00 | 0.00 | 53 | 1014.7 |
| 20260903181028 | 79 | 78 | 7.0 | 12.0 | 0.00 | 0.00 | 0.00 | 52 | 1014.7 |
| 20260903180021 | 79 | 76 | 6.0 | 9.0 | 0.00 | 0.00 | 0.00 | 50 | 1014.4 |
| 20260903175038 | 80 | 125 | 6.0 | 10.0 | 0.00 | 0.00 | 0.00 | 48 | 1014.4 |
| 20260903174039 | 80 | 114 | 7.0 | 13.0 | 0.00 | 0.00 | 0.00 | 45 | 1014.3 |
| 20260903173521 | 80 | 58 | 7.0 | 12.0 | 0.00 | 0.00 | 0.00 | 45 | 1014.2 |
| 20260903173037 | 81 | 44 | 7.0 | 13.0 | 0.00 | 0.00 | 0.00 | 45 | 1014.1 |
| 20260903172521 | 81 | 125 | 7.0 | 12.0 | 0.00 | 0.00 | 0.00 | 45 | 1014.2 |
| 20260903172038 | 81 | 48 | 6.0 | 12.0 | 0.00 | 0.00 | 0.00 | 44 | 1014.0 |
| 20260903170521 | 83 | 76 | 7.0 | 12.0 | 0.00 | 0.00 | 0.00 | 43 | 1013.9 |
| 20260903170021 | 83 | 64 | 6.0 | 12.0 | 0.00 | 0.00 | 0.00 | 43 | 1013.8 |
| 20260903165037 | 84 | 90 | 2.0 | 7.0 | 0.00 | 0.00 | 0.00 | 44 | 1013.8 |
| 20260903164037 | 85 | 52 | 1.0 | 3.0 | 0.00 | 0.00 | 0.00 | 42 | 1013.8 |
| 20260903163037 | 85 | 4 | 2.0 | 3.0 | 0.00 | 0.00 | 0.00 | 40 | 1013.8 |
| 20260903162520 | 85 | 9 | 1.0 | 3.0 | 0.00 | 0.00 | 0.00 | 39 | 1013.8 |
| 20260903162036 | 85 | 200 | 4.0 | 8.0 | 0.00 | 0.00 | 0.00 | 38 | 1013.7 |
| 20260903161036 | 86 | 197 | 5.0 | 9.0 | 0.00 | 0.00 | 0.00 | 40 | 1013.7 |
| 20260903155520 | 86 | 174 | 3.0 | 8.0 | 0.00 | 0.00 | 0.00 | 39 | 1013.7 |
| 20260903155037 | 87 | 330 | 4.0 | 8.0 | 0.00 | 0.00 | 0.00 | 38 | 1013.7 |
| 20260903154520 | 87 | 15 | 5.0 | 9.0 | 0.00 | 0.00 | 0.00 | 37 | 1013.6 |
| 20260903154039 | 88 | 43 | 4.0 | 7.0 | 0.00 | 0.00 | 0.00 | 37 | 1013.5 |
| 20260903153520 | 88 | 297 | 3.0 | 8.0 | 0.00 | 0.00 | 0.00 | 37 | 1013.4 |
| 20260903153037 | 88 | 309 | 3.0 | 5.0 | 0.00 | 0.00 | 0.00 | 37 | 1013.4 |
| 20260903151037 | 87 | 253 | 7.0 | 12.0 | 0.00 | 0.00 | 0.00 | 36 | 1013.3 |
| 20260903150522 | 88 | 297 | 6.0 | 12.0 | 0.00 | 0.00 | 0.00 | 35 | 1013.4 |
| 20260903144521 | 89 | 262 | 7.0 | 14.0 | 0.00 | 0.00 | 0.00 | 30 | 1013.5 |
| 20260903143520 | 89 | 183 | 11.0 | 17.0 | 0.00 | 0.00 | 0.00 | 29 | 1013.5 |
| 20260903143037 | 89 | 277 | 8.0 | 14.0 | 0.00 | 0.00 | 0.00 | 28 | 1013.6 |
| 20260903141522 | 89 | 231 | 7.0 | 17.0 | 0.00 | 0.00 | 0.00 | 27 | 1013.7 |
| 20260903141037 | 89 | 215 | 9.0 | 15.0 | 0.00 | 0.00 | 0.00 | 27 | 1013.8 |
| 20260903140520 | 89 | 256 | 10.0 | 18.0 | 0.00 | 0.00 | 0.00 | 27 | 1013.7 |
| 20260903140022 | 89 | 228 | 11.0 | 20.0 | 0.00 | 0.00 | 0.00 | 27 | 1013.6 |
| 20260903135037 | 89 | 227 | 9.0 | 18.0 | 0.00 | 0.00 | 0.00 | 28 | 1013.8 |
| 20260903134038 | 89 | 241 | 11.0 | 20.0 | 0.00 | 0.00 | 0.00 | 29 | 1013.8 |
| 20260903133037 | 89 | 245 | 10.0 | 20.0 | 0.00 | 0.00 | 0.00 | 31 | 1013.8 |
| 20260903132523 | 89 | 256 | 12.0 | 20.0 | 0.00 | 0.00 | 0.00 | 32 | 1013.9 |
| 20260903131525 | 89 | 262 | 14.0 | 22.0 | 0.00 | 0.00 | 0.00 | 32 | 1014.0 |
| 20260903125521 | 90 | 224 | 9.0 | 16.0 | 0.00 | 0.00 | 0.00 | 32 | 1014.2 |
| 20260903125037 | 90 | 240 | 9.0 | 18.0 | 0.00 | 0.00 | 0.00 | 32 | 1014.2 |
| 20260903124522 | 90 | 282 | 10.0 | 20.0 | 0.00 | 0.00 | 0.00 | 30 | 1014.3 |
| 20260903120520 | 90 | 269 | 9.0 | 16.0 | 0.00 | 0.00 | 0.00 | 34 | 1014.6 |
| 20260903120020 | 90 | 226 | 10.0 | 20.0 | 0.00 | 0.00 | 0.00 | 32 | 1014.6 |
| 20260903115036 | 91 | 268 | 12.0 | 21.0 | 0.00 | 0.00 | 0.00 | 31 | 1014.7 |
| 20260903114036 | 91 | 278 | 6.0 | 12.0 | 0.00 | 0.00 | 0.00 | 28 | 1014.5 |
| 20260903112520 | 91 | 211 | 7.0 | 17.0 | 0.00 | 0.00 | 0.00 | 28 | 1014.6 |
| 20260903112037 | 92 | 237 | 9.0 | 16.0 | 0.00 | 0.00 | 0.00 | 26 | 1014.7 |
| 20260903111520 | 92 | 163 | 7.0 | 15.0 | 0.00 | 0.00 | 0.00 | 26 | 1014.7 |
| 20260903110521 | 92 | 262 | 7.0 | 14.0 | 0.00 | 0.00 | 0.00 | 24 | 1014.7 |
| 20260903110023 | 91 | 281 | 3.0 | 6.0 | 0.00 | 0.00 | 0.00 | 24 | 1014.8 |
| 20260903104038 | 90 | 243 | 6.0 | 12.0 | 0.00 | 0.00 | 0.00 | 25 | 1015.0 |
| 20260903100020 | 89 | 218 | 6.0 | 12.0 | 0.00 | 0.00 | 0.00 | 25 | 1015.8 |
| 20260903094521 | 88 | 49 | 2.0 | 3.0 | 0.00 | 0.00 | 0.00 | 26 | 1016.0 |